Track MICROMAS 2A now! 10-day predictions MICROMAS 2A is classified as:
1 43131U 18004W 21055.47645224 .00004168 00000-0 16208-3 0 9991 2 43131 97.4222 132.1311 0007364 235.1536 124.9011 15.26572456173526